ファン・ネス彗星

P/2002 Q1 ( Van Ness ) 2009

English version
Home page
Updated on April 12, 2008

---------------------------------------------------------------------

・ プロフィール

・ 軌道要素

The following orbital elements are taken from MPC 56803:

Epoch 2009 Mar. 30.0 TT = JDT 2454920.5
T 2009 Mar. 20.9521 TT                                  MPC
q   1.551187             (2000.0)            P               Q
n   0.1469114      Peri.  185.0196      +0.9980782      -0.0030215
a   3.557124       Node   173.9961      -0.0106437      +0.9756074
e   0.563921       Incl.   36.2801      -0.0610460      -0.2195020
P   6.71
From 53 observations 2002 Aug. 17-Oct. 14, mean residual 0".7.

・ 光度変化

        m1 = 14.5 + 5 logΔ + 10.0 log r

---------------------------------------------------------------------

軌道要素はMPCのEphemerides and Orbital Elementsに掲載されたものです。
光度グラフはComet for Windowsで作成したものです。

---------------------------------------------------------------------

Copyright(C) Seiichi Yoshida (comet@aerith.net). All rights reserved.